Weather in Reimerswaal

Netherlands     51°26′08″N   4°07′40″E
temp.,
°C
wind,
m/s
gust,
m/s
humid.,
%
clouds,
%
prec.,
mm/h
press.,
hPa
HPBL,
m
10 april, sat
sat1023:00+7ne3373100 0.0 101254
02:00+6ne5788100 0.0 1013340
05:00+5ene5891100 0.0 1013300
08:00+6ene6888100 0.0 1014488
11:00+6ene7889100 0.0 1014566
14:00+5ene7892100 0.6 1013507
17:00+5ne7893100 3.1 1011766
20:00+4ne8996100 6.5 1010676
11 april, sun
sun1123:00+4nne71197100 0.8 1010692
02:00+3nne71197100 2.3 1010499
05:00+3nne71498100 2.9 1011658
08:00+3nne81396100 3.9 1012703
11:00+4nne81180100 0.1 10131010
14:00+6nne7965100 0.1 10151400
17:00+7n785697 0.0 10161078
20:00+5n796492 0.1 1019850
12 april, mon
mon1223:00+4n47715 0.0 1021315
02:00+3n34745 0.0 1023127
05:00+2n22765 0.0 102475
08:00+3nnw1173100 0.0 102676
11:00+6nw5560100 0.1 10271185
14:00+7nw565128 0.3 10281493
17:00+7nw66545 0.0 10281384
20:00+5nw45624 0.0 1029556
13 april, tue
tue1323:00+4nw236698 0.0 1030109
02:00+4nw1164100 0.0 103084
05:00+3nw116887 0.0 103186
08:00+3nw12745 0.1 1032101
11:00+6nw34525 0.0 10321410
14:00+7nw555885 0.1 10321409
17:00+7nw665838 0.1 10321287
20:00+6nnw56685 0.1 1032647
14 april, wed
wed1423:00+4n357840 0.0 1033153
02:00+4nnw237656 0.0 103291
05:00+3nnw127430 0.0 103281
08:00+4nw11715 0.0 103272
11:00+6wnw23546 0.0 1033675
14:00+8nw445689 0.3 10321315
17:00+8nw665631 0.3 10311044
20:00+7n68565 0.3 1031475